OBJECT A

Satellite information

Favourite Embed

Satellite Type and Status

UNKNOWNIN ORBIT

Key statistics

Satellite OBJECT A at a glance.

Uptime

2218

Days in orbit

Revolutions

≈ 15.2

Per day

Orbit

LEO

Low Earth Orbit

Inclination

45.0

Latest

Satellite identification and parameters

Extended collection of information and parameters for OBJECT A.

Object identification

Identified? True

Debris? False

Object name: OBJECT A

International designator: 2019-032A

Object number (NORAD): 44310

Object ID (CCSDS): 44310

Country: PEOPLES REPUBLIC OF CHINA (PRC)

Current information (Y/N): Y

RCS size: MEDIUM

Orbital parameters

Period: 94.823 minutes

Inclination: 44.9746 deg

SMA: 6888.144 km

Apoapsis: 517.826 km

Periapsis: 502.191 km

RAAN: 169.1256 deg

Eccentricy: 0.0011349

Argument of periapsis: 42.8634 deg

Mean anomaly: 317.3128 deg

Mean motion: 15.18621279 rev/day

Mean motion (dot): 0.00005946 rev/day2

B* drag term: 0.00029462 1/REarth

Two-line elements (TLE)

Creation date: June 30, 2025, 3:44 a.m.

Reference frame: TEME

Reference center: EARTH

Epoch: June 29, 2025, 7:56 p.m. UTC

TLE line 0: 0 OBJECT A

TLE line 1: 1 44310U 19032A 25180.83087866 .00005946 00000-0 29462-3 0 9999

TLE line 2: 2 44310 44.9746 169.1256 0011349 42.8634 317.3128 15.18621279333458

Live tracking on map

Real-time ground track for satellite OBJECT A.

In-orbit conjunctions

There are no conjunctions computed for OBJECT A, at the moment. Check back to stay up to date, as we update our databases every day.

Go to all conjunctions

Associated space launch

The first sea launch of Long March 11 rocket. It carries 7 satellites, which include a new high-resolution Earth observation satellite Jilin-1 and several test satellites, verifying such technologies as sea surface wind measuring and satellite interlink communication.

OBJECT A was lifted into orbit during the mission ‘Long March 11 | Jilin-1 & others’, on board a Long March 11 space rocket.

The launch took place on June 5, 2019, 4:06 a.m. from Tai Rui mobile launch platform.

For more information about the launch, click the button.

Launch to space Long March 11 | Jilin-1 & others
Long March 11 | Jilin-1 & others

Agency: N/A

Status: Launch Successful

Launch date: June 5, 2019, 4:06 a.m. UTC

Rocket: Long March 11

Launch pad: Tai Rui mobile launch platform

Location: Sea Launch

...

Latest news about this satellite

There are no fresh news available about this satellite. Check back as we update our databases every day.


Newsletter sign-up

Weekly statistics, charts and insights to help you stay on top of the space industry.